Project,Study,Ord_Occ,Event_Num,Cast_ID,Date_Time_UTC,Date_Time_PST,Lat_Dec,Lon_Dec,Sta_ID,Line,Sta,Depth,Pressure,PrQ,Temp1,Temp1Q,Temp2,Temp2Q,TempAve,Salt1,Salt1Q,Salt1_Corr,Salt2,Salt2Q,Salt2_Corr,SaltAve_Corr,Ox1,Ox1Q,Ox1_CruiseCorr,Ox1_StaCorr,Ox2,Ox2Q,Ox2_CruiseCorr,Ox2_StaCorr,OxAve_StaCorr,Ox1uM,Ox1uM_CruiseCorr,Ox1uM_StaCorr,Ox2uM,Ox2uM_CruiseCorr,Ox2uM_StaCorr,OxAveuM_StaCorr,FluorV,FluorQ,EstChl_CruiseCorr,EstChl_StaCorr,ISUSV,ISUSQ,EstNO3_CruiseCorr,EstNO3_StaCorr,SigThetaTS1,SigThetaTS1Q,SigThetaTS2,SigThetaTS2Q,BAT,XMiss,TransQ,pH,pHQ,SPAR,SPARQ,PAR,PARQ,PoT1,PoT2,DynHt,SVA,OxSat1,OxSat2,BTL_Depth,BTL_Temp,SaltB,OxB,OxBuM,Chl-a,Phaeo,NO3,NO2,NH4,PO4,SIL
CalCOFI,2007SR,020,21,2007_020u,17-Jul-2020 05:48:20,16-Jul-2020 21:48:20,31.08514,-122.66186,090.0 100.0,090.0,100.0,516.000,520.235,,5.5651,,5.5622,,5.5637,34.2201,,34.2203,34.2224,,34.2240,34.2222,0.4227,,0.4240,0.4065,,,,,,18.380,18.6988,18.4097,,,,,0.0322,,,,1.8413,,41.4638,40.040,26.9955,,26.9976,,0.6263,85.5067,,7.512,,1.9043E+00,,1.0000E-12,,5.5215,5.5187,1.0386,,6.024,,516,5.565,34.2178,0.386,16.84,,,40.81,0.00,0.14,3.14,83.90
CalCOFI,2007SR,020,21,2007_020u,17-Jul-2020 05:49:35,16-Jul-2020 21:49:35,31.08514,-122.66186,090.0 100.0,090.0,100.0,515.000,519.225,,5.5809,,5.5791,,5.5800,34.2201,,34.2203,34.2214,,34.2230,34.2217,0.4108,,0.4115,0.3940,,,,,,17.864,18.1601,17.8711,,,,,0.0321,,,,1.8460,,41.5958,40.170,26.9936,,26.9948,,0.6256,85.5220,,7.515,,1.9043E+00,,1.0000E-12,,5.5374,5.5355,1.0468,,5.858,,,,,,,,,,,,,
CalCOFI,2007SR,020,21,2007_020u,17-Jul-2020 05:50:19,16-Jul-2020 21:50:19,31.08514,-122.66186,090.0 100.0,090.0,100.0,514.000,518.216,,5.5630,,5.5609,,5.5620,34.2217,,34.2219,34.2229,,34.2245,34.2232,0.4103,,0.4110,0.3935,,,,,,17.845,18.1403,17.8512,,,,,0.0321,,,,1.8482,,41.6576,40.231,26.9970,,26.9982,,0.6254,85.5270,,7.515,,1.9043E+00,,1.0000E-12,,5.5196,5.5175,1.0520,,5.849,,,,,,,,,,,,,
CalCOFI,2007SR,020,21,2007_020u,17-Jul-2020 05:50:20,16-Jul-2020 21:50:20,31.08514,-122.66186,090.0 100.0,090.0,100.0,513.000,517.206,,5.5591,,5.5596,,5.5594,34.2216,,34.2218,34.2227,,34.2243,34.2231,0.4177,,0.4188,0.4012,,,,,,18.164,18.4733,18.1842,,,,,0.0330,,,,1.8484,,41.6632,40.237,26.9974,,26.9981,,0.6254,85.5269,,7.515,,1.9043E+00,,1.0000E-12,,5.5158,5.5163,1.0519,,5.953,,,,,,,,,,,,,
CalCOFI,2007SR,020,21,2007_020u,17-Jul-2020 05:50:21,16-Jul-2020 21:50:21,31.08514,-122.66186,090.0 100.0,090.0,100.0,512.000,516.197,,5.5685,,5.5694,,5.5690,34.2190,,34.2192,34.2199,,34.2215,34.2204,0.4165,,0.4175,0.4000,,,,,,18.111,18.4180,18.1289,,,,,0.0322,,,,1.8486,,41.6688,40.242,26.9941,,26.9948,,0.6254,85.5269,,7.515,,1.9043E+00,,1.0000E-12,,5.5253,5.5262,1.0519,,5.937,,,,,,,,,,,,,
CalCOFI,2007SR,020,21,2007_020u,17-Jul-2020 05:50:22,16-Jul-2020 21:50:22,31.08514,-122.66186,090.0 100.0,090.0,100.0,511.000,515.187,,5.5730,,5.5729,,5.5730,34.2177,,34.2179,34.2190,,34.2206,34.2193,0.4200,,0.4212,0.4036,,,,,,18.265,18.5787,18.2896,,,,,0.0328,,,,1.8489,,41.6772,40.250,26.9926,,26.9936,,0.6254,85.5269,,7.515,,1.9043E+00,,1.0000E-12,,5.5299,5.5298,1.0519,,5.988,,,,,,,,,,,,,
CalCOFI,2007SR,020,21,2007_020u,17-Jul-2020 05:50:24,16-Jul-2020 21:50:24,31.08514,-122.66186,090.0 100.0,090.0,100.0,510.000,514.178,,5.5751,,5.5753,,5.5752,34.2174,,34.2176,34.2187,,34.2203,34.2190,0.4182,,0.4193,0.4018,,,,,,18.186,18.4963,18.2072,,,,,0.0319,,,,1.8489,,41.6772,40.250,26.9921,,26.9931,,0.6254,85.5269,,7.515,,1.9043E+00,,1.0000E-12,,5.5321,5.5323,1.0519,,5.962,,,,,,,,,,,,,
CalCOFI,2007SR,020,21,2007_020u,17-Jul-2020 05:50:25,16-Jul-2020 21:50:25,31.08514,-122.66186,090.0 100.0,090.0,100.0,509.000,513.168,,5.5760,,5.5759,,5.5760,34.2174,,34.2176,34.2186,,34.2202,34.2189,0.4247,,0.4261,0.4086,1.9203,,0.6431,0.5890,0.4988,18.468,18.7906,18.5015,83.505,,30.9745,24.7380,0.0316,,,,1.8485,,41.6660,40.239,26.9920,,26.9929,,0.6254,85.5269,,7.515,,1.9043E+00,,1.0000E-12,,5.5330,5.5330,1.0519,,6.055,27.377,,,,,,,,,,,,
CalCOFI,2007SR,020,21,2007_020u,17-Jul-2020 05:50:26,16-Jul-2020 21:50:26,31.08514,-122.66186,090.0 100.0,090.0,100.0,508.000,512.159,,5.5882,,5.5908,,5.5895,34.2185,,34.2187,34.2199,,34.2215,34.2201,0.4193,,0.4204,0.4029,1.9079,,0.6135,0.5577,0.4803,18.233,18.5453,18.2562,82.967,,29.6567,23.9565,0.0316,,,,1.8481,,41.6548,40.228,26.9913,,26.9922,,0.6254,85.5269,,7.515,,1.9043E+00,,1.0000E-12,,5.5453,5.5478,1.0519,,5.979,27.211,,,,,,,,,,,,
CalCOFI,2007SR,020,21,2007_020u,17-Jul-2020 05:50:27,16-Jul-2020 21:50:27,31.08514,-122.66186,090.0 100.0,090.0,100.0,507.000,511.150,,5.6058,,5.6057,,5.6058,34.2170,,34.2172,34.2179,,34.2195,34.2184,0.4191,,0.4202,0.4027,1.9131,,0.6259,0.5708,0.4868,18.226,18.5380,18.2489,83.194,,30.2128,24.2309,0.0323,,,,1.8477,,41.6436,40.217,26.9880,,26.9887,,0.6254,85.5269,,7.515,,1.9043E+00,,1.0000E-12,,5.5629,5.5628,1.0519,,5.980,27.294,,,,,,,,,,,,
CalCOFI,2007SR,020,21,2007_020u,17-Jul-2020 05:50:28,16-Jul-2020 21:50:28,31.08514,-122.66186,090.0 100.0,090.0,100.0,506.000,510.140,,5.5836,,5.5841,,5.5839,34.2164,,34.2166,34.2172,,34.2188,34.2177,0.4193,,0.4204,0.4029,1.9150,,0.6305,0.5756,0.4893,18.235,18.5474,18.2583,83.277,,30.4161,24.3372,0.0327,,,,1.8475,,41.6379,40.212,26.9902,,26.9908,,0.6254,85.5269,,7.515,,1.9043E+00,,1.0000E-12,,5.5408,5.5413,1.0519,,5.979,27.307,,,,,,,,,,,,
CalCOFI,2007SR,020,21,2007_020u,17-Jul-2020 05:50:29,16-Jul-2020 21:50:29,31.08514,-122.66186,090.0 100.0,090.0,100.0,505.000,509.131,,5.5999,,5.6045,,5.6022,34.2182,,34.2184,34.2204,,34.2220,34.2202,0.4191,,0.4202,0.4027,1.9137,,0.6274,0.5723,0.4875,18.224,18.5359,18.2468,83.219,,30.2740,24.2604,0.0321,,,,1.8477,,41.6436,40.217,26.9897,,26.9908,,0.6254,85.5269,,7.515,,1.9043E+00,,1.0000E-12,,5.5572,5.5618,1.0519,,5.978,27.302,,,,,,,,,,,,
CalCOFI,2007SR,020,21,2007_020u,17-Jul-2020 05:50:30,16-Jul-2020 21:50:30,31.08514,-122.66186,090.0 100.0,090.0,100.0,504.000,508.121,,5.6061,,5.6054,,5.6058,34.2166,,34.2168,34.2175,,34.2191,34.2180,0.4152,,0.4161,0.3986,1.9084,,0.6147,0.5589,0.4788,18.056,18.3606,18.0715,82.990,,29.7131,23.8923,0.0333,,,,1.8482,,41.6576,40.231,26.9876,,26.9885,,0.6254,85.5269,,7.515,,1.9043E+00,,1.0000E-12,,5.5635,5.5628,1.0519,,5.924,27.227,,,,,,,,,,,,
CalCOFI,2007SR,020,21,2007_020u,17-Jul-2020 05:50:31,16-Jul-2020 21:50:31,31.08514,-122.66186,090.0 100.0,090.0,100.0,503.000,507.112,,5.6307,,5.6282,,5.6295,34.2221,,34.2223,34.2239,,34.2255,34.2239,0.4092,,0.4099,0.3924,1.9005,,0.5959,0.5390,0.4657,17.794,18.0871,17.7980,82.648,,28.8753,23.3367,0.0319,,,,1.8486,,41.6688,40.242,26.9890,,26.9908,,0.6254,85.5269,,7.515,,1.9043E+00,,1.0000E-12,,5.5880,5.5855,1.0519,,5.841,27.130,,,,,,,,,,,,
CalCOFI,2007SR,020,21,2007_020u,17-Jul-2020 05:50:32,16-Jul-2020 21:50:32,31.08514,-122.66186,090.0 100.0,090.0,100.0,502.000,506.102,,5.6639,,5.6632,,5.6636,34.2238,,34.2240,34.2254,,34.2270,34.2255,0.4135,,0.4144,0.3969,1.9028,,0.6014,0.5448,0.4709,17.981,18.2823,17.9932,82.746,,29.1154,23.5543,0.0320,,,,1.8487,,41.6716,40.245,26.9864,,26.9876,,0.6255,85.5239,,7.515,,1.9043E+00,,1.0000E-12,,5.6212,5.6205,1.0519,,5.907,27.185,,,,,,,,,,,,
CalCOFI,2007SR,020,21,2007_020u,17-Jul-2020 05:50:33,16-Jul-2020 21:50:33,31.08514,-122.66186,090.0 100.0,090.0,100.0,501.000,505.093,,5.6849,,5.6846,,5.6848,34.2249,,34.2251,34.2265,,34.2281,34.2266,0.4155,,0.4165,0.3989,1.9034,,0.6028,0.5463,0.4726,18.069,18.3741,18.0850,82.771,,29.1766,23.6308,0.0314,,,,1.8486,,41.6688,40.242,26.9846,,26.9859,,0.6257,85.5198,,7.515,,1.9043E+00,,1.0000E-12,,5.6422,5.6419,1.0519,,5.939,27.207,,,,,,,,,,,,
CalCOFI,2007SR,020,21,2007_020u,17-Jul-2020 05:50:34,16-Jul-2020 21:50:34,31.08514,-122.66186,090.0 100.0,090.0,100.0,500.000,504.084,,5.7017,,5.7033,,5.7025,34.2247,,34.2249,34.2262,,34.2278,34.2264,0.4237,,0.4250,0.4075,1.9022,,0.5999,0.5433,0.4754,18.426,18.7468,18.4577,82.722,,29.0566,23.7572,0.0327,,,,1.8480,,41.6520,40.225,26.9824,,26.9834,,0.6258,85.5191,,7.515,,1.9043E+00,,1.0000E-12,,5.6590,5.6606,1.0519,,6.059,27.203,,,,,,,,,,,,
CalCOFI,2007SR,020,21,2007_020u,17-Jul-2020 05:50:35,16-Jul-2020 21:50:35,31.08514,-122.66186,090.0 100.0,090.0,100.0,499.000,503.074,,5.7094,,5.7094,,5.7094,34.2217,,34.2219,34.2228,,34.2244,34.2232,0.4300,,0.4316,0.4141,1.8999,,0.5944,0.5374,0.4758,18.699,19.0318,18.7426,82.619,,28.8043,23.7735,0.0323,,,,1.8466,,41.6127,40.187,26.9791,,26.9800,,0.6260,85.5147,,7.515,,1.9043E+00,,1.0000E-12,,5.6668,5.6668,1.0519,,6.150,27.172,,,,,,,,,,,,
CalCOFI,2007SR,020,21,2007_020u,17-Jul-2020 05:50:36,16-Jul-2020 21:50:36,31.08514,-122.66186,090.0 100.0,090.0,100.0,498.000,502.065,,5.7146,,5.7150,,5.7148,34.2195,,34.2197,34.2205,,34.2221,34.2209,0.4350,,0.4368,0.4193,1.8941,,0.5806,0.5228,0.4711,18.917,19.2594,18.9701,82.370,,28.1944,23.5823,0.0321,,,,1.8452,,41.5734,40.148,26.9767,,26.9774,,0.6265,85.5035,,7.515,,1.9043E+00,,1.0000E-12,,5.6720,5.6725,1.0519,,6.222,27.093,,,,,,,,,,,,
CalCOFI,2007SR,020,21,2007_020u,17-Jul-2020 05:50:37,16-Jul-2020 21:50:37,31.08514,-122.66186,090.0 100.0,090.0,100.0,497.000,501.056,,5.7155,,5.7157,,5.7156,34.2161,,34.2163,34.2173,,34.2189,34.2176,0.4377,,0.4397,0.4221,1.8922,,0.5760,0.5180,0.4701,19.036,19.3836,19.0944,82.288,,27.9935,23.5440,0.0317,,,,1.8440,,41.5397,40.115,26.9739,,26.9748,,0.6262,85.5106,,7.515,,1.9043E+00,,1.0000E-12,,5.6731,5.6733,1.0519,,6.261,27.066,,,,,,,,,,,,
CalCOFI,2007SR,020,21,2007_020u,17-Jul-2020 05:50:38,16-Jul-2020 21:50:38,31.08514,-122.66186,090.0 100.0,090.0,100.0,496.000,500.046,,5.7193,,5.7197,,5.7195,34.2154,,34.2156,34.2166,,34.2182,34.2169,0.4375,,0.4394,0.4219,1.8947,,0.5820,0.5243,0.4731,19.027,19.3742,19.0850,82.396,,28.2581,23.6716,0.0317,,,,1.8428,,41.5060,40.081,26.9729,,26.9737,,0.6254,85.5269,,7.515,,1.9043E+00,,1.0000E-12,,5.6769,5.6773,1.0519,,6.259,27.104,,,,,,,,,,,,
CalCOFI,2007SR,020,21,2007_020u,17-Jul-2020 05:50:39,16-Jul-2020 21:50:39,31.08514,-122.66186,090.0 100.0,090.0,100.0,495.000,499.037,,5.7298,,5.7305,,5.7302,34.2152,,34.2154,34.2165,,34.2181,34.2168,0.4326,,0.4343,0.4168,1.8894,,0.5694,0.5109,0.4639,18.814,19.1518,18.8626,82.164,,27.6898,23.2762,0.0312,,,,1.8412,,41.4610,40.037,26.9714,,26.9724,,0.6254,85.5269,,7.515,,1.9043E+00,,1.0000E-12,,5.6875,5.6882,1.0519,,6.190,27.035,,,,,,,,,,,,
CalCOFI,2007SR,020,21,2007_020u,17-Jul-2020 05:50:40,16-Jul-2020 21:50:40,31.08514,-122.66186,090.0 100.0,090.0,100.0,494.000,498.027,,5.7423,,5.7431,,5.7427,34.2147,,34.2149,34.2160,,34.2176,34.2163,0.4319,,0.4336,0.4161,1.8838,,0.5560,0.4967,0.4564,18.784,19.1205,18.8313,81.919,,27.0896,22.9605,0.0319,,,,1.8389,,41.3964,39.973,26.9695,,26.9704,,0.6256,85.5225,,7.515,,1.9043E+00,,1.0000E-12,,5.7000,5.7008,1.0519,,6.182,26.962,,,,,,,,,,,,
CalCOFI,2007SR,020,21,2007_020u,17-Jul-2020 05:50:41,16-Jul-2020 21:50:41,31.08514,-122.66186,090.0 100.0,090.0,100.0,493.000,497.018,,5.7646,,5.7671,,5.7659,34.2169,,34.2171,34.2196,,34.2212,34.2192,0.4310,,0.4327,0.4151,1.8867,,0.5629,0.5041,0.4596,18.741,19.0756,18.7864,82.047,,27.4032,23.0948,0.0317,,,,1.8360,,41.3150,39.893,26.9685,,26.9703,,0.6255,85.5240,,7.515,,1.9043E+00,,1.0000E-12,,5.7223,5.7248,1.0519,,6.171,27.020,,,,,,,,,,,,
CalCOFI,2007SR,020,21,2007_020u,17-Jul-2020 05:50:42,16-Jul-2020 21:50:42,31.08514,-122.66186,090.0 100.0,090.0,100.0,492.000,496.009,,5.8300,,5.8270,,5.8285,34.2228,,34.2230,34.2247,,34.2263,34.2247,0.4306,,0.4322,0.4147,1.8839,,0.5562,0.4970,0.4559,18.725,19.0589,18.7697,81.927,,27.1092,22.9395,0.0321,,,,1.8331,,41.2336,39.813,26.9651,,26.9670,,0.6259,85.5172,,7.515,,1.9043E+00,,1.0000E-12,,5.7876,5.7846,1.0519,,6.176,27.019,,,,,,,,,,,,
CalCOFI,2007SR,020,21,2007_020u,17-Jul-2020 05:50:43,16-Jul-2020 21:50:43,31.08514,-122.66186,090.0 100.0,090.0,100.0,491.000,494.999,,5.8512,,5.8505,,5.8509,34.2217,,34.2219,34.2230,,34.2246,34.2233,0.4303,,0.4319,0.4144,1.8825,,0.5529,0.4934,0.4539,18.712,19.0454,18.7562,81.866,,26.9598,22.8580,0.0320,,,,1.8305,,41.1606,39.740,26.9616,,26.9627,,0.6262,85.5095,,7.515,,1.9043E+00,,1.0000E-12,,5.8087,5.8080,1.0519,,6.175,27.013,,,,,,,,,,,,
CalCOFI,2007SR,020,21,2007_020u,17-Jul-2020 05:50:44,16-Jul-2020 21:50:44,31.08514,-122.66186,090.0 100.0,090.0,100.0,490.000,493.990,,5.8578,,5.8589,,5.8584,34.2215,,34.2217,34.2227,,34.2243,34.2230,0.4302,,0.4318,0.4143,1.8818,,0.5512,0.4917,0.4530,18.707,19.0401,18.7510,81.837,,26.8888,22.8199,0.0321,,,,1.8280,,41.0904,39.671,26.9606,,26.9614,,0.6259,85.5152,,7.515,,1.9043E+00,,1.0000E-12,,5.8154,5.8165,1.0519,,6.174,27.009,,,,,,,,,,,,
CalCOFI,2007SR,020,21,2007_020u,17-Jul-2020 05:50:45,16-Jul-2020 21:50:45,31.08514,-122.66186,090.0 100.0,090.0,100.0,489.000,492.981,,5.8627,,5.8628,,5.8628,34.2214,,34.2216,34.2225,,34.2241,34.2229,0.4301,,0.4317,0.4142,1.8781,,0.5424,0.4823,0.4483,18.706,19.0391,18.7499,81.675,,26.4920,22.6210,0.0326,,,,1.8258,,41.0286,39.610,26.9599,,26.9608,,0.6264,85.5058,,7.515,,1.9043E+00,,1.0000E-12,,5.8204,5.8205,1.0519,,6.174,26.958,,,,,,,,,,,,
CalCOFI,2007SR,020,21,2007_020u,17-Jul-2020 05:50:46,16-Jul-2020 21:50:46,31.08514,-122.66186,090.0 100.0,090.0,100.0,488.000,491.971,,5.8698,,5.8707,,5.8703,34.2217,,34.2219,34.2229,,34.2245,34.2232,0.4352,,0.4370,0.4195,1.8730,,0.5302,0.4694,0.4445,18.926,19.2688,18.9795,81.451,,25.9433,22.4614,0.0323,,,,1.8239,,40.9753,39.558,26.9592,,26.9601,,0.6265,85.5034,,7.516,,1.9043E+00,,1.0000E-12,,5.8275,5.8285,1.0519,,6.248,26.889,,,,,,,,,,,,
CalCOFI,2007SR,020,21,2007_020u,17-Jul-2020 05:50:47,16-Jul-2020 21:50:47,31.08514,-122.66186,090.0 100.0,090.0,100.0,487.000,490.962,,5.8778,,5.8786,,5.8782,34.2215,,34.2217,34.2225,,34.2241,34.2229,0.4387,,0.4407,0.4232,1.8772,,0.5402,0.4800,0.4516,19.078,19.4274,19.1382,81.635,,26.3940,22.7661,0.0330,,,,1.8216,,40.9107,39.494,26.9580,,26.9588,,0.6265,85.5034,,7.515,,1.9043E+00,,1.0000E-12,,5.8356,5.8364,1.0519,,6.299,26.955,,,,,,,,,,,,
CalCOFI,2007SR,020,21,2007_020u,17-Jul-2020 05:50:48,16-Jul-2020 21:50:48,31.08512,-122.66186,090.0 100.0,090.0,100.0,486.000,489.953,,5.8869,,5.8883,,5.8876,34.2209,,34.2211,34.2218,,34.2234,34.2223,0.4368,,0.4387,0.4212,1.8723,,0.5285,0.4676,0.4444,18.994,19.3397,19.0505,81.421,,25.8698,22.4602,0.0316,,,,1.8183,,40.8180,39.402,26.9565,,26.9570,,0.6259,85.5160,,7.515,,1.9043E+00,,1.0000E-12,,5.8448,5.8461,1.0519,,6.273,26.890,,,,,,,,,,,,
CalCOFI,2007SR,020,21,2007_020u,17-Jul-2020 05:50:49,16-Jul-2020 21:50:49,31.08514,-122.66186,090.0 100.0,090.0,100.0,485.000,488.943,,5.8958,,5.8960,,5.8959,34.2197,,34.2199,34.2209,,34.2225,34.2212,0.4406,,0.4427,0.4252,1.8731,,0.5305,0.4697,0.4475,19.161,19.5141,19.2248,81.457,,25.9580,22.5914,0.0322,,,,1.8132,,40.6748,39.261,26.9544,,26.9553,,0.6261,85.5125,,7.516,,1.9043E+00,,1.0000E-12,,5.8538,5.8540,1.0519,,6.329,26.907,,,,,,,,,,,,
CalCOFI,2007SR,020,21,2007_020u,17-Jul-2020 05:50:51,16-Jul-2020 21:50:51,31.08514,-122.66186,090.0 100.0,090.0,100.0,484.000,487.934,,5.8998,,5.9007,,5.9003,34.2195,,34.2197,34.2207,,34.2223,34.2210,0.4535,,0.4562,0.4386,1.8733,,0.5309,0.4702,0.4544,19.720,20.0976,19.8083,81.466,,25.9800,22.8942,0.0320,,,,1.8080,,40.5288,39.117,26.9538,,26.9546,,0.6265,85.5031,,7.518,,1.9043E+00,,1.0000E-12,,5.8578,5.8587,1.0519,,6.514,26.912,,,,,,,,,,,,
CalCOFI,2007SR,020,21,2007_020u,17-Jul-2020 05:50:52,16-Jul-2020 21:50:52,31.08514,-122.66186,090.0 100.0,090.0,100.0,483.000,486.925,,5.9206,,5.9172,,5.9189,34.2183,,34.2185,34.2196,,34.2212,34.2199,0.4629,,0.4660,0.4484,1.8722,,0.5283,0.4674,0.4579,20.132,20.5277,20.2383,81.419,,25.8649,23.0516,0.0328,,,,1.8050,,40.4445,39.034,26.9502,,26.9517,,0.6263,85.5068,,7.518,,1.9043E+00,,1.0000E-12,,5.8786,5.8752,1.0519,,6.654,26.907,,,,,,,,,,,,
CalCOFI,2007SR,020,21,2007_020u,17-Jul-2020 05:50:53,16-Jul-2020 21:50:53,31.08514,-122.66185,090.0 100.0,090.0,100.0,482.000,485.915,,5.9112,,5.9109,,5.9111,34.2127,,34.2129,34.2130,,34.2146,34.2138,0.4694,,0.4728,0.4552,1.8724,,0.5288,0.4679,0.4616,20.412,20.8200,20.5306,81.426,,25.8820,23.2063,0.0319,,,,1.8031,,40.3912,38.981,26.9469,,26.9472,,0.6254,85.5258,,7.518,,1.9043E+00,,1.0000E-12,,5.8694,5.8691,1.0519,,6.744,26.904,,,,,,,,,,,,
CalCOFI,2007SR,020,21,2007_020u,17-Jul-2020 05:50:53,16-Jul-2020 21:50:53,31.08514,-122.66186,090.0 100.0,090.0,100.0,481.000,484.906,,5.9084,,5.9087,,5.9086,34.2102,,34.2104,34.2113,,34.2129,34.2117,0.4727,,0.4762,0.4587,1.8723,,0.5285,0.4676,0.4632,20.557,20.9714,20.6819,81.422,,25.8722,23.2771,0.0317,,,,1.8016,,40.3491,38.939,26.9453,,26.9461,,0.6261,85.5129,,7.518,,1.9043E+00,,1.0000E-12,,5.8666,5.8669,1.0519,,6.792,26.901,,,,,,,,,,,,
CalCOFI,2007SR,020,21,2007_020u,17-Jul-2020 05:50:54,16-Jul-2020 21:50:54,31.08514,-122.66186,090.0 100.0,090.0,100.0,480.000,483.897,,5.9059,,5.9058,,5.9059,34.2079,,34.2081,34.2082,,34.2098,34.2090,0.4751,,0.4787,0.4612,1.8722,,0.5283,0.4674,0.4643,20.661,21.0799,20.7905,81.419,,25.8649,23.3277,0.0316,,,,1.8006,,40.3210,38.912,26.9437,,26.9441,,0.6255,85.5256,,7.518,,1.9043E+00,,1.0000E-12,,5.8642,5.8641,1.0519,,6.825,26.898,,,,,,,,,,,,
CalCOFI,2007SR,020,21,2007_020u,17-Jul-2020 05:50:55,16-Jul-2020 21:50:55,31.08514,-122.66186,090.0 100.0,090.0,100.0,479.000,482.887,,5.9092,,5.9102,,5.9097,34.2067,,34.2069,34.2078,,34.2094,34.2082,0.4785,,0.4823,0.4647,1.8718,,0.5273,0.4664,0.4656,20.809,21.2344,20.9449,81.399,,25.8159,23.3804,0.0314,,,,1.7999,,40.3013,38.892,26.9424,,26.9431,,0.6264,85.5063,,7.519,,1.9043E+00,,1.0000E-12,,5.8676,5.8686,1.0519,,6.875,26.894,,,,,,,,,,,,
CalCOFI,2007SR,020,21,2007_020u,17-Jul-2020 05:50:56,16-Jul-2020 21:50:56,31.08514,-122.66186,090.0 100.0,090.0,100.0,478.000,481.878,,5.9264,,5.9261,,5.9263,34.2073,,34.2075,34.2087,,34.2103,34.2089,0.4766,,0.4803,0.4627,1.8693,,0.5214,0.4600,0.4614,20.725,21.1467,20.8572,81.292,,25.5538,23.2055,0.0323,,,,1.7997,,40.2957,38.887,26.9407,,26.9419,,0.6257,85.5210,,7.519,,1.9043E+00,,1.0000E-12,,5.8849,5.8846,1.0519,,6.850,26.869,,,,,,,,,,,,
CalCOFI,2007SR,020,21,2007_020u,17-Jul-2020 05:50:57,16-Jul-2020 21:50:57,31.08512,-122.66186,090.0 100.0,090.0,100.0,477.000,480.869,,5.9445,,5.9449,,5.9447,34.2074,,34.2076,34.2090,,34.2106,34.2091,0.4753,,0.4789,0.4614,1.8671,,0.5161,0.4545,0.4580,20.668,21.0872,20.7978,81.196,,25.3187,23.0583,0.0320,,,,1.8000,,40.3041,38.895,26.9385,,26.9397,,0.6257,85.5208,,7.519,,1.9043E+00,,1.0000E-12,,5.9030,5.9034,1.0519,,6.834,26.849,,,,,,,,,,,,
CalCOFI,2007SR,020,21,2007_020u,17-Jul-2020 05:50:58,16-Jul-2020 21:50:58,31.08512,-122.66186,090.0 100.0,090.0,100.0,476.000,479.860,,5.9614,,5.9645,,5.9630,34.2082,,34.2084,34.2093,,34.2109,34.2097,0.4803,,0.4842,0.4666,1.8658,,0.5130,0.4512,0.4589,20.886,21.3148,21.0253,81.139,,25.1790,23.1022,0.0319,,,,1.8003,,40.3126,38.903,26.9370,,26.9376,,0.6255,85.5237,,7.519,,1.9043E+00,,1.0000E-12,,5.9199,5.9230,1.0519,,6.909,26.842,,,,,,,,,,,,
CalCOFI,2007SR,020,21,2007_020u,17-Jul-2020 05:50:59,16-Jul-2020 21:50:59,31.08512,-122.66185,090.0 100.0,090.0,100.0,475.000,478.850,,5.9727,,5.9756,,5.9742,34.2089,,34.2091,34.2103,,34.2119,34.2105,0.4930,,0.4974,0.4799,1.8691,,0.5209,0.4595,0.4697,21.439,21.8921,21.6025,81.285,,25.5367,23.5696,0.0315,,,,1.8003,,40.3126,38.903,26.9361,,26.9369,,0.6265,85.5033,,7.519,,1.9043E+00,,1.0000E-12,,5.9313,5.9342,1.0519,,7.094,26.897,,,,,,,,,,,,
CalCOFI,2007SR,020,21,2007_020u,17-Jul-2020 05:51:00,16-Jul-2020 21:51:00,31.08512,-122.66184,090.0 100.0,090.0,100.0,474.000,477.841,,5.9892,,5.9924,,5.9908,34.2074,,34.2076,34.2076,,34.2092,34.2084,0.5012,,0.5060,0.4884,1.8593,,0.4975,0.4348,0.4616,21.798,22.2668,21.9772,80.858,,24.4907,23.2340,0.0324,,,,1.7997,,40.2957,38.887,26.9329,,26.9327,,0.6261,85.5110,,7.519,,1.9043E+00,,1.0000E-12,,5.9478,5.9510,1.0519,,7.215,26.766,,,,,,,,,,,,
CalCOFI,2007SR,020,21,2007_020u,17-Jul-2020 05:51:01,16-Jul-2020 21:51:01,31.08512,-122.66184,090.0 100.0,090.0,100.0,473.000,476.832,,5.9760,,5.9753,,5.9757,34.2006,,34.2008,34.2016,,34.2032,34.2020,0.5059,,0.5109,0.4933,1.8695,,0.5219,0.4606,0.4770,22.000,22.4777,22.1880,81.302,,25.5783,23.8832,0.0328,,,,1.7988,,40.2704,38.862,26.9291,,26.9300,,0.6254,85.5270,,7.519,,1.9043E+00,,1.0000E-12,,5.9348,5.9341,1.0519,,7.279,26.901,,,,,,,,,,,,
CalCOFI,2007SR,020,21,2007_020u,17-Jul-2020 05:51:02,16-Jul-2020 21:51:02,31.08512,-122.66185,090.0 100.0,090.0,100.0,472.000,475.823,,5.9867,,5.9870,,5.9869,34.2002,,34.2004,34.2008,,34.2024,34.2014,0.5075,,0.5126,0.4950,1.8667,,0.5152,0.4535,0.4743,22.071,22.5518,22.2621,81.181,,25.2819,23.7720,0.0319,,,,1.7973,,40.2283,38.820,26.9275,,26.9279,,0.6254,85.5269,,7.519,,1.9043E+00,,1.0000E-12,,5.9455,5.9458,1.0519,,7.305,26.869,,,,,,,,,,,,
CalCOFI,2007SR,020,21,2007_020u,17-Jul-2020 05:51:03,16-Jul-2020 21:51:03,31.08513,-122.66186,090.0 100.0,090.0,100.0,471.000,474.813,,5.9858,,5.9863,,5.9861,34.1985,,34.1987,34.1993,,34.2009,34.1998,0.5106,,0.5158,0.4982,1.8660,,0.5135,0.4517,0.4750,22.207,22.6938,22.4041,81.150,,25.2060,23.8051,0.0323,,,,1.7953,,40.1722,38.765,26.9262,,26.9268,,0.6254,85.5269,,7.519,,1.9043E+00,,1.0000E-12,,5.9447,5.9451,1.0519,,7.349,26.857,,,,,,,,,,,,
CalCOFI,2007SR,020,21,2007_020u,17-Jul-2020 05:51:04,16-Jul-2020 21:51:04,31.08514,-122.66186,090.0 100.0,090.0,100.0,470.000,473.804,,5.9921,,5.9933,,5.9927,34.1990,,34.1992,34.2004,,34.2020,34.2006,0.5234,,0.5292,0.5116,1.8660,,0.5135,0.4517,0.4817,22.764,23.2752,22.9855,81.153,,25.2133,24.0994,0.0321,,,,1.7932,,40.1132,38.707,26.9259,,26.9268,,0.6254,85.5269,,7.519,,1.9043E+00,,1.0000E-12,,5.9510,5.9522,1.0519,,7.535,26.863,,,,,,,,,,,,
CalCOFI,2007SR,020,21,2007_020u,17-Jul-2020 05:51:06,16-Jul-2020 21:51:06,31.08512,-122.66185,090.0 100.0,090.0,100.0,469.000,472.795,,6.0108,,6.0115,,6.0112,34.1996,,34.1998,34.2002,,34.2018,34.2008,0.5482,,0.5551,0.5375,1.8644,,0.5097,0.4477,0.4926,23.840,24.3985,24.1085,81.081,,25.0370,24.5728,0.0323,,,,1.7915,,40.0655,38.660,26.9239,,26.9244,,0.6254,85.5269,,7.520,,1.9043E+00,,1.0000E-12,,5.9699,5.9705,1.0519,,7.894,26.850,,,,,,,,,,,,
CalCOFI,2007SR,020,21,2007_020u,17-Jul-2020 05:51:07,16-Jul-2020 21:51:07,31.08512,-122.66184,090.0 100.0,090.0,100.0,468.000,471.786,,6.0025,,5.9979,,6.0002,34.1899,,34.1901,34.1887,,34.1903,34.1902,0.5662,,0.5739,0.5563,1.8650,,0.5111,0.4492,0.5028,24.624,25.2169,24.9268,81.106,,25.0982,25.0125,0.0326,,,,1.7906,,40.0402,38.635,26.9174,,26.9170,,0.6254,85.5269,,7.520,,1.9043E+00,,1.0000E-12,,5.9616,5.9570,1.0519,,8.152,26.848,,,,,,,,,,,,
CalCOFI,2007SR,020,21,2007_020u,17-Jul-2020 05:51:08,16-Jul-2020 21:51:08,31.08512,-122.66184,090.0 100.0,090.0,100.0,467.000,470.776,,5.9784,,5.9776,,5.9780,34.1834,,34.1836,34.1837,,34.1853,34.1845,0.5782,,0.5865,0.5688,1.8658,,0.5130,0.4512,0.5100,25.147,25.7629,25.4727,81.142,,25.1864,25.3296,0.0315,,,,1.7898,,40.0177,38.612,26.9152,,26.9156,,0.6254,85.5269,,7.521,,1.9043E+00,,1.0000E-12,,5.9376,5.9369,1.0519,,8.320,26.846,,,,,,,,,,,,
CalCOFI,2007SR,020,21,2007_020u,17-Jul-2020 05:51:08,16-Jul-2020 21:51:08,31.08512,-122.66184,090.0 100.0,090.0,100.0,466.000,469.767,,5.9725,,5.9723,,5.9724,34.1807,,34.1809,34.1809,,34.1825,34.1817,0.5877,,0.5964,0.5787,1.8658,,0.5130,0.4512,0.5150,25.558,26.1919,25.9017,81.144,,25.1913,25.5465,0.0320,,,,1.7891,,39.9981,38.593,26.9138,,26.9140,,0.6254,85.5269,,7.520,,1.9043E+00,,1.0000E-12,,5.9319,5.9317,1.0519,,8.455,26.843,,,,,,,,,,,,
CalCOFI,2007SR,020,21,2007_020u,17-Jul-2020 05:51:09,16-Jul-2020 21:51:09,31.08512,-122.66186,090.0 100.0,090.0,100.0,465.000,468.758,,5.9687,,5.9688,,5.9688,34.1777,,34.1779,34.1782,,34.1798,34.1789,0.5931,,0.6020,0.5844,1.8658,,0.5130,0.4512,0.5178,25.794,26.4383,26.1480,81.143,,25.1888,25.6684,0.0317,,,,1.7888,,39.9897,38.585,26.9119,,26.9123,,0.6254,85.5269,,7.522,,1.9043E+00,,1.0000E-12,,5.9283,5.9283,1.0519,,8.532,26.840,,,,,,,,,,,,
CalCOFI,2007SR,020,21,2007_020u,17-Jul-2020 05:51:10,16-Jul-2020 21:51:10,31.08512,-122.66186,090.0 100.0,090.0,100.0,464.000,467.749,,5.9678,,5.9682,,5.9680,34.1751,,34.1753,34.1758,,34.1774,34.1764,0.5948,,0.6038,0.5862,1.8656,,0.5125,0.4507,0.5185,25.869,26.5165,26.2263,81.135,,25.1692,25.6978,0.0314,,,,1.7889,,39.9925,38.587,26.9099,,26.9105,,0.6247,85.5413,,7.523,,1.9043E+00,,1.0000E-12,,5.9274,5.9277,1.0519,,8.556,26.836,,,,,,,,,,,,